Indianapolis, IN

8:44 AM EDT on July 16, 2019 (GMT -0400)
Indianapolis International

Weather History for KIND - May, 2019

Change the Weather History Date:

Wednesday, May 22, 2019

  Actual Average Record
Temperature  
Mean Temperature 67 °F 64 °F  
Max Temperature 76 °F 75 °F 93 °F (1941)
Min Temperature 57 °F 55 °F 35 °F (1883)
Degree Days  
Heating Degree Days 0 3  
Month to date heating degree days 125 118  
Since 1 July heating degree days 5376 5340  
Cooling Degree Days 2 3  
Month to date cooling degree days 26 37  
Year to date cooling degree days 27 52  
Growing Degree Days 14 (Base 50)    
Moisture  
Dew Point 59 °F    
Average Humidity 77    
Maximum Humidity 87    
Minimum Humidity 67    
Precipitation  
Precipitation 0.20 in 0.16 in 2.16 in (1989)
Month to date precipitation 2.96 3.62  
Year to date precipitation 20.44 15.97  
Snow  
Snow 0.00 in 0.00 in 0.00 in ()
Month to date snowfall 0.0 0.0  
Since 1 July snowfall 19.4 25.9  
Snow Depth 0.00 in    
Sea Level Pressure  
Sea Level Pressure 29.96 in    
Wind  
Wind Speed 11 mph (SSE)    
Max Wind Speed 23 mph    
Max Gust Speed 32 mph    
Visibility 9 miles    
Events Rain    
T = Trace of Precipitation, MM = Missing Value Source: NWS Daily Summary

Daily Weather History Graph

Daily Weather History Graph

Search for Another Location

Airport or City:

Astronomy

May. 22, 2019 Rise Set
Actual Time 6:25 AM EDT 8:59 PM EDT
Civil Twilight 5:53 AM EDT 9:30 PM EDT
Nautical Twilight 5:15 AM EDT 10:09 PM EDT
Astronomical Twilight 4:32 AM EDT 10:52 PM EDT
Moon No Moon Rise 9:32 AM EDT (5/22)
Length of Visible Light 15h 36m
Length of Day
14h 34m
Waning Gibbous, 85% of the Moon is Illuminated
May 22
Waning Gibbous
May 26
Last Quarter
Jun 3
New
Jun 10
First Quarter
Jun 17
Full

Hourly Weather History & Observations

Time (EDT) Temp. Dew Point Humidity Pressure Visibility Wind Dir Wind Speed Gust Speed Precip Events Conditions
12:54 AM 57.0 °F 46.9 °F 69% 29.91 in 10.0 mi ESE 15.0 mph 25.3 mph N/A   Mostly Cloudy
1:54 AM 57.9 °F 48.9 °F 72% 29.90 in 10.0 mi ESE 16.1 mph - N/A   Mostly Cloudy
2:54 AM 60.1 °F 50.0 °F 69% 29.87 in 10.0 mi ESE 19.6 mph 29.9 mph N/A   Mostly Cloudy
3:54 AM 60.1 °F 51.1 °F 72% 29.86 in 10.0 mi ESE 23.0 mph 31.1 mph N/A   Mostly Cloudy
4:54 AM 59.0 °F 53.1 °F 81% 29.91 in 10.0 mi WSW 6.9 mph - 0.00 in Rain Light Rain
5:54 AM 57.9 °F 54.0 °F 87% 29.93 in 10.0 mi NNW 6.9 mph - 0.01 in Rain Light Rain
6:54 AM 57.0 °F 55.0 °F 93% 29.93 in 10.0 mi NNW 4.6 mph - 0.00 in   Overcast
7:54 AM 57.0 °F 55.9 °F 96% 29.97 in 5.0 mi North 3.5 mph - 0.04 in Rain Light Rain
8:54 AM 57.9 °F 55.9 °F 93% 29.97 in 6.0 mi Calm Calm - 0.02 in   Overcast
9:54 AM 60.1 °F 57.9 °F 93% 29.95 in 9.0 mi SE 5.8 mph - 0.03 in Rain Light Rain
10:54 AM 60.1 °F 57.9 °F 93% 29.98 in 3.0 mi SSE 9.2 mph - 0.04 in Rain Rain
11:54 AM 63.0 °F 62.1 °F 97% 29.99 in 10.0 mi South 12.7 mph - 0.06 in   Mostly Cloudy
12:33 PM 66.0 °F 62.1 °F 87% 30.00 in 10.0 mi South 11.5 mph - N/A   Mostly Cloudy
12:54 PM 66.9 °F 62.1 °F 84% 29.99 in 10.0 mi South 15.0 mph - N/A   Mostly Cloudy
1:05 PM 68.0 °F 62.1 °F 81% 29.97 in 10.0 mi SSW 8.1 mph - N/A   Mostly Cloudy
1:54 PM 70.0 °F 63.0 °F 78% 29.97 in 10.0 mi South 12.7 mph - N/A   Mostly Cloudy
2:54 PM 72.0 °F 63.0 °F 73% 29.98 in 10.0 mi SSW 15.0 mph 21.9 mph N/A   Mostly Cloudy
3:54 PM 75.0 °F 66.0 °F 73% 29.98 in 10.0 mi SSW 15.0 mph - N/A   Mostly Cloudy
4:54 PM 75.0 °F 66.0 °F 73% 29.97 in 10.0 mi South 10.4 mph - N/A   Mostly Cloudy
5:54 PM 75.0 °F 66.0 °F 73% 29.98 in 10.0 mi South 11.5 mph - N/A   Mostly Cloudy
6:54 PM 75.0 °F 64.9 °F 71% 29.98 in 10.0 mi South 11.5 mph - N/A   Scattered Clouds
7:54 PM 73.9 °F 66.0 °F 76% 29.99 in 10.0 mi South 11.5 mph - N/A   Scattered Clouds
8:54 PM 71.1 °F 66.0 °F 84% 29.99 in 10.0 mi South 8.1 mph - N/A   Mostly Cloudy
9:54 PM 69.1 °F 64.9 °F 87% 29.98 in 10.0 mi SSE 9.2 mph - N/A   Scattered Clouds
10:54 PM 68.0 °F 64.9 °F 90% 29.99 in 10.0 mi SE 8.1 mph - N/A   Scattered Clouds
11:54 PM 69.1 °F 64.9 °F 87% 30.00 in 10.0 mi South 9.2 mph - N/A   Partly Cloudy